Starlink 11190

operational
NORAD ID: 60911 Int'l Des: 2024-154 Owner: SPXS Country: US Constellation: starlink
LEOCIRCULAR

关于 Starlink 11190

正在加载描述...

实时位置

正在加载3D地球...

即将过境

高度历史

Altitude vs Time

uPlot chart will show altitude changes over time

两行轨道根数

1 60911U 24154J 25258.34183079 .00002128 00000-0 22423-4 0 9990
2 60911 53.1572 275.6919 0002322 89.0049 271.1235 15.69720060 60968
Epoch: Sep 15, 2025 • Age: 24 hours

当前状态

高度 372.5 km
速度 7.69 km/s
星下点 -36.33°S, 115.18°E
发射日期 Aug 31, 2024
运行时间 1 years
类型 internet

技术详情

分类 Payload
质量 960.00 kg
干质量 910.00 kg
总质量 960.00 kg
长度 0.30 m
直径 4.10 m
跨度 29.00 m
形状 Box + pan
制造商 SPXS
平台类型 Starlink V2MD
阶段状态 In Orbit
所有者/国家 SPXS/US

大型星座

Loading constellations...